Regional Weather Roundup
Issued by NWS

Home | Current Version | Previous Version | Text Only | Print | Product List | Glossary On
Versions: 1 2 3 4 5 6 7 8 9 10 11 12 13 14 15 16 17 18 19 20 21 22 23 24 25 26 27 28 29 30 31 32 33 34 35 36 37 38 39 40 41 42 43 44 45 46 47 48 49 50
000
ASUS43 KLOT 080408
RWRIL

ILLINOIS REGIONAL WEATHER ROUNDUP
NATIONAL WEATHER SERVICE CHICAGO/ROMEOVILLE IL
1000 PM CST SUN FEB 07 2016

NOTE: "FAIR" INDICATES FEW OR NO CLOUDS BELOW 12,000 FEET WITH NO
SIGNIFICANT WEATHER AND/OR OBSTRUCTIONS TO VISIBILITY.

* THESE STATIONS ARE NOT UNDER NWS QUALITY CONTROL. THEY ALSO MAY NOT
  REPORT WEATHER SUCH AS PRECIPITATION OR FOG.

ILZ001-002-007-009-015-016-024-080500-
NORTHWEST ILLINOIS

CITY           SKY/WX    TMP DP  RH WIND       PRES   REMARKS
MOLINE         CLEAR     34  27  75 W10       29.75F WCI  26
STERLING*      CLEAR     34  27  75 SW9       29.71F WCI  26
SAVANNA*       CLEAR     34  28  81 W8        29.72F WCI  27
$$

ILZ003-004-008-010-011-017-018-080500-
NORTH CENTRAL ILLINOIS

CITY           SKY/WX    TMP DP  RH WIND       PRES   REMARKS
ROCKFORD       CLEAR     34  27  75 SW8       29.72F WCI  27
FREEPORT*      CLEAR     32  28  84 W7        29.72F WCI  26
ROCHELLE*      CLEAR     32  29  91 SW8       29.73F WCI  25
DE KALB*       CLEAR     33  29  85 SW10      29.72S WCI  25
$$

ILZ005-006-012>014-019>023-080500-
NORTHEAST ILLINOIS

CITY           SKY/WX    TMP DP  RH WIND       PRES   REMARKS
CHICAGO-OHARE  PTCLDY    34  27  75 W8        29.71F WCI  27
CHICAGO-MIDWAY PTCLDY    37  26  64 SW8       29.73F WCI  31
AURORA         CLEAR     33  28  81 W9        29.73F WCI  25
LANSING*       PTCLDY    35  27  74 W8        29.74F WCI  28
JOLIET*        CLEAR     35  29  78 SW5       29.75F WCI  31
WAUKEGAN       CLEAR     34  28  79 VRB7      29.68F WCI  28
DUPAGE AIRPORT CLEAR     31  25  78 SW9       29.72F WCI  23
KANKAKEE*      CLOUDY    34  28  80 SW8       29.77F WCI  27
WHEELING       CLEAR     35  28  75 W6        29.72S WCI  30
MORRIS*        CLEAR     32  28  85 SW6       29.74S WCI  27
ROMEOVILLE*    CLEAR     33  27  80 SW7       29.74F WCI  26
NORTHERLY ISL    N/A     38  27  65 SW6         N/A  WCI  33
$$

LMZ740>746-080500-
SOUTHERN LAKE MICHIGAN

STATION/POSITION SKY/WX   TEMP    WIND        PRES    VSBY  WAVE
                          AIR SEA DIR/SP/G                  HT/PER
                          (F)     (DEG/KT/KT) (MB)    (MI)  (FT/S)
HARRISON CRIB              40     260/ 18/ 20   N/A
BURNHAM HARBOR             38     250/  5/ 12   N/A
CALUMET HARBOR             38     220/  9/ 12 1006.7F
BURNS HARBOR               38     260/ 15/ 19 1008.1F
MICHIGAN CITY              36     230/ 17/ 18   N/A
$$

ILZ025>027-034>036-040-047-049-050-058-095>099-080500-
WEST-CENTRAL ILLINOIS

CITY           SKY/WX    TMP DP  RH WIND       PRES   REMARKS
QUINCY         CLOUDY    37  29  72 W13G20    29.84S WCI  29
GALESBURG*     PTCLDY    33  29  85 W10       29.78F WCI  25
MACOMB*        MOCLDY    36  29  78 W12       29.83F WCI  27
JACKSONVILLE*  MOCLDY    39  32  75 SW8       29.83F WCI  34
PITTSFIELD*    CLOUDY    36  31  82 SW5       29.85F WCI  32
$$

ILZ028>032-037-038-041>044-048-051>054-059>061-080500-
CENTRAL ILLINOIS

CITY           SKY/WX    TMP DP  RH WIND       PRES   REMARKS
PONTIAC        CLEAR     34  31  88 W9        29.78S WCI  26
BLOOMINGTON    PTCLDY    36  28  73 W8        29.79F WCI  30
DECATUR        LGT RAIN  39  32  76 W10       29.83S WCI  32
PEORIA         CLOUDY    35  26  69 SW6       29.79F WCI  30
LACON*         PTCLDY    33  26  76 SW3       29.77F
LINCOLN*       MOCLDY    36  32  87 CALM      29.81S
SPRINGFIELD    CLEAR     37  30  75 SW7       29.82F WCI  32
TAYLORVILLE    CLOUDY    34  32  93 CALM      29.83F
$$

ILZ033-039-045-046-055>057-062-063-080500-
EAST-CENTRAL ILLINOIS

CITY           SKY/WX    TMP DP  RH WIND       PRES   REMARKS
CHAMPAIGN      PTCLDY    35  31  85 W7        29.79F WCI  29
RANTOUL*       MOCLDY    37  33  83 W9        29.79F WCI  31
MATTOON        CLOUDY    41  30  65 W17       29.80F
PARIS*         CLOUDY    38  33  82 SW5       29.81F WCI  35
$$

ILZ079-100>102-080500-
SOUTHWEST ILLINOIS

CITY           SKY/WX    TMP DP  RH WIND       PRES   REMARKS
ALTON          CLEAR     32  28  86 CALM      29.86F
BELLEVILLE     PTCLDY    37  31  80 W5        29.86F WCI  33
CAHOKIA*       LGT RAIN  41  31  67 W13G35    29.90S
SPARTA*        MOCLDY    44  29  56 W9        29.90S
$$

ILZ064>066-069>071-074>076-080>082-084>086-088>090-092>094-080500-
SOUTH-CENTRAL ILLINOIS

CITY           SKY/WX    TMP DP  RH WIND       PRES   REMARKS
CARBONDALE     CLOUDY    44  32  62 W8        29.89F
CAIRO*         CLOUDY    46  36  68 W5        29.91F
EFFINGHAM*     RAIN      38  35  87 W18G26    29.88R WCI  29
MARION         CLOUDY    45  34  65 SW3       29.90S
MT. VERNON     CLOUDY    41  32  70 SW3       29.88S
CENTRALIA*     LGT RAIN  42  37  82 W7        29.88R
SALEM*         RAIN      42  35  76 NW13G21   29.88R
METROPOLIS*    LGT RAIN  46  38  74 NW7G20    29.91R
$$

ILZ067-068-072-073-078-083-087-091-080500-
SOUTHEAST ILLINOIS

CITY           SKY/WX    TMP DP  RH WIND       PRES   REMARKS
LAWRENCEVILLE  MOCLDY    44  31  60 W14       29.85R
FLORA*         CLOUDY    41  38  87 W6        29.86F
FAIRFIELD*     CLOUDY    41  37  84 CALM      29.84F
HARRISBURG*    LGT RAIN  42  37  80 NW8       29.89F
ROBINSON*      CLOUDY    42  32  66 W15       29.84S
CARMI*         CLOUDY    44  35  71 W17       29.88R
$$

ABBREVIATIONS USED IN REMARKS
   TC - TEMPERATURE IN CELSIUS
  WCI - WIND CHILL INDEX
   HX - HEAT INDEX
  VSB - VISIBILITY
$$





USA.gov is the U.S. government's official web portal to all federal, state and local government web resources and services.